[[{"header":{"parameterUnit":"m.s-1","parameterCategory":2,"la1":30.2991,"la2":30.254,"lo1":-89.0895,"lo2":-89.0444,"dy":0.0017,"dx":0.0017,"nx":28,"ny":28,"refTime":"2023-08-06T21:00:00:Z","depth":"0","parameterNumber":2,"parameterNumberName":"U-component_of_CURRENTS"},"data":[0,0,0,0,0,0,0,0,0,0,0,0,0,0,0,0,0,0,0,0,0,0,0,0,0,0,0,0,0,0,0,0,0,0,0,0,0,0,0,0,0,0,0,0,0,0,0,0,0,0,0,0,0,0,0,0,0,0,0.2886,0.2888,0,0.2958,0.2958,0.2959,0.2992,0.2993,0.2993,0.2994,0.3076,0.3077,0.3079,0,0,0,0,0,0,0,0,0,0,0,0,0,0.2848,0.2847,0.2886,0.2888,0.2889,0.2958,0.2958,0.2959,0.2992,0.2993,0.2994,0.2994,0.3075,0.3077,0.3079,0,0,0,0,0,0,0,0,0,0,0,0,0,0.288,0.2847,0.2886,0.2919,0.2923,0.2958,0.2958,0.2959,0.2992,0.2993,0.2994,0.2995,0.3075,0.3077,0.308,0.3077,0,0,0.3087,0.3088,0,0,0,0,0,0,0,0,0.2878,0.288,0.2913,0.2917,0.2922,0.2973,0.2975,0.3001,0.2992,0.2959,0.2994,0.2995,0.3046,0.3051,0.3053,0.3081,0.3085,0.3087,0.3089,0.309,0.309,0,0,0,0,0,0,0,0.2875,0.2878,0.2908,0.2915,0.292,0.2955,0.2959,0.298,0.2991,0.2962,0.2966,0.2985,0.3048,0.305,0.3055,0.3086,0.3087,0.3089,0.3091,0.3092,0.3224,0.3226,0,0,0,0,0,0,0.2875,0.2875,0.2905,0.291,0.2909,0.2955,0.296,0.295,0.2991,0.3,0.2984,0.2986,0.3046,0.3052,0.3058,0.3143,0.309,0.3092,0.3093,0.3222,0.3224,0.3226,0,0,0,0,0,0,0.2874,0.2876,0.2903,0.2902,0.2909,0.2955,0.2944,0.2951,0.2961,0.3009,0.3017,0.2989,0.3047,0.3055,0.3088,0.3143,0.3093,0.3095,0.3219,0.3222,0.3225,0.3258,0,0,0,0,0,0,0.2872,0.2874,0.287,0.2901,0.2909,0.2929,0.2945,0.2952,0.2974,0.2978,0.3016,0.3024,0.3048,0.3084,0.3091,0.3146,0.3097,0.3217,0.3221,0.3224,0.3254,0.3261,0.3268,0,0,0,0,0,0.2869,0.2877,0.2869,0.2874,0.2899,0.293,0.2937,0.2969,0.2974,0.2979,0.3008,0.3023,0.3115,0.3086,0.3094,0.3151,0.3215,0.322,0.3224,0.3251,0.326,0.3268,0,0,0,0,0,0,0.2887,0.2882,0.2874,0.2885,0.2904,0.2939,0.2956,0.2967,0.299,0.2995,0.3027,0.3037,0.3101,0.3111,0.3079,0.3203,0.3176,0.3182,0.3195,0.3203,0.321,0.3192,0.3099,0,0,0,0,0,0.2879,0.2874,0.2879,0.2899,0.2893,0.2915,0.2933,0.295,0.2978,0.2989,0.3019,0.3063,0.3123,0.3147,0.3191,0.3233,0.3264,0.3283,0.329,0.3296,0.3288,0.3385,0.34,0.3241,0.3241,0.3241,0,0,0.2913,0.2899,0.291,0.2901,0.291,0.2921,0.2926,0.2952,0.2985,0.2994,0.3042,0.3083,0.314,0.3208,0.3238,0.3222,0.336,0.3301,0.3306,0.3295,0.3391,0.3407,0.342,0.3244,0.3244,0.3243,0,0,0.2953,0.2934,0.2925,0.2925,0.2928,0.2941,0.2944,0.2963,0.2988,0.303,0.307,0.3128,0.3193,0.3255,0.3295,0.3359,0.3396,0.3389,0.3405,0.35,0.3513,0.3526,0.3592,0.361,0.3389,0.3389,0.3389,0,0.2982,0.2962,0.294,0.2923,0.2941,0.2944,0.2955,0.2982,0.3024,0.306,0.3053,0.3189,0.3224,0.3338,0.3361,0.3377,0.3423,0.3367,0.3508,0.3521,0.3533,0.3598,0.3617,0.3391,0.3391,0.3391,0.3391,0,0.3005,0.2988,0.2989,0.2959,0.2975,0.2991,0.3012,0.3039,0.3066,0.3108,0.3209,0.3255,0.334,0.3375,0.3381,0.35,0.3503,0.3508,0.3482,0.3551,0.3615,0.3635,0.3394,0.3393,0.3393,0.3392,0,0,0.3053,0.3008,0.3004,0.2992,0.299,0.301,0.3058,0.3111,0.3162,0.3213,0.3295,0.339,0.3414,0.3459,0.3495,0.3558,0.3676,0.3558,0.3562,0.3614,0.3876,0.3872,0.3892,0.371,0.3714,0.3717,0.3888,0,0.3067,0.3036,0.3026,0.3044,0.303,0.3054,0.3108,0.3167,0.3219,0.3296,0.3373,0.3463,0.3453,0.3498,0.3565,0.3646,0.3728,0.3627,0.3809,0.3814,0.3795,0.3915,0.3763,0.3904,0.3907,0.3911,0.3913,0,0.3057,0.3047,0.304,0.3061,0.3062,0.3093,0.3171,0.3221,0.3329,0.3373,0.3464,0.3523,0.3631,0.3607,0.3786,0.3723,0.3802,0.3855,0.3864,0.3857,0.3847,0.3837,0.3939,0.3736,0.3943,0.394,0.3938,0,0.3047,0.3049,0.3045,0.305,0.3084,0.3117,0.3159,0.325,0.3311,0.3424,0.3483,0.3612,0.3683,0.3799,0.3897,0.386,0.4083,0.4058,0.4137,0.4136,0.4039,0.4025,0.3955,0.421,0.4209,0.4209,0.4208,0,0.3016,0.3012,0.3044,0.3037,0.3085,0.3122,0.3187,0.3242,0.3354,0.3425,0.3523,0.3608,0.3734,0.3868,0.3948,0.4105,0.4145,0.4165,0.4198,0.4047,0.4032,0.3875,0.3787,0.4215,0.4214,0.4213,0.4211,0,0.295,0.2956,0.2977,0.3042,0.3055,0.3097,0.3178,0.3224,0.334,0.3434,0.3478,0.3642,0.381,0.3949,0.4139,0.4178,0.4199,0.4373,0.4171,0.4177,0.4034,0.3955,0.3897,0.3804,0.4487,0.4488,0.4489,0,0.2891,0.2891,0.2969,0.2979,0.2995,0.3053,0.3069,0.3188,0.324,0.3444,0.3486,0.37,0.3829,0.4118,0.4256,0.4445,0.4258,0.4363,0.4269,0.4027,0.3964,0.382,0.3733,0.4155,0.4153,0.4151,0.415,0,0.282,0.2863,0.2894,0.2914,0.2934,0.2962,0.3012,0.3057,0.3193,0.3314,0.348,0.3624,0.3927,0.4054,0.4295,0.4377,0.4109,0.434,0.4148,0.3755,0.3536,0.346,0.4018,0.4137,0.4138,0.4139,0.414,0.4141,0.2791,0.2808,0.2843,0.2856,0.2865,0.2853,0.2862,0.2937,0.3038,0.3187,0.3377,0.3533,0.3747,0.4099,0.4148,0.4073,0.4119,0.3932,0.3879,0.3772,0.3599,0.4124,0.4243,0.4245,0.4246,0.4248,0.4249,0,0.2743,0.2736,0.2756,0.277,0.2739,0.2768,0.2795,0.2807,0.2879,0.3039,0.3207,0.3349,0.3495,0.362,0.3697,0.358,0.3464,0.345,0.3156,0.3117,0.3632,0.3528,0.3424,0.3424,0.3424,0.3424,0.3425,0.3425,0.271,0.2674,0.2683,0.2623,0.2622,0.257,0.2571,0.2605,0.2697,0.2766,0.2822,0.2945,0.3091,0.315,0.3039,0.3006,0.275,0.2708,0.2695,0.2962,0.2999,0.3034,0.291,0.2679,0.2678,0.206,0.2054,0.205]},{"header":{"parameterUnit":"m.s-1","parameterCategory":2,"la1":30.2991,"la2":30.254,"lo1":-89.0895,"lo2":-89.0444,"dy":0.0017,"dx":0.0017,"nx":28,"ny":28,"refTime":"2023-08-06T21:00:00:Z","depth":"0","parameterNumber":3,"parameterNumberName":"V-component_of_CURRENTS"},"data":[0,0,0,0,0,0,0,0,0,0,0,0,0,0,0,0,0,0,0,0,0,0,0,0,0,0,0,0,0,0,0,0,0,0,0,0,0,0,0,0,0,0,0,0,0,0,0,0,0,0,0,0,0,0,0,0,0,0,-0.0768,-0.0769,0,-0.0814,-0.0814,-0.0814,-0.0875,-0.0876,-0.0878,-0.0879,-0.098,-0.0981,-0.0982,0,0,0,0,0,0,0,0,0,0,0,0,0,-0.0772,-0.0771,-0.0768,-0.0769,-0.077,-0.0814,-0.0814,-0.0814,-0.0875,-0.0876,-0.0878,-0.088,-0.0979,-0.0981,-0.0982,0,0,0,0,0,0,0,0,0,0,0,0,0,-0.0785,-0.0771,-0.0768,-0.0808,-0.0813,-0.0813,-0.0814,-0.0814,-0.0874,-0.0876,-0.0878,-0.088,-0.0979,-0.0981,-0.0983,-0.0954,0,0,-0.0989,-0.099,0,0,0,0,0,0,0,0,-0.0784,-0.0784,-0.0802,-0.0806,-0.0811,-0.0844,-0.0852,-0.0865,-0.0874,-0.0847,-0.0879,-0.0881,-0.0941,-0.0946,-0.0943,-0.0958,-0.0963,-0.0989,-0.099,-0.0991,-0.0992,0,0,0,0,0,0,0,-0.0783,-0.0783,-0.0782,-0.0802,-0.0808,-0.0838,-0.0841,-0.0855,-0.0879,-0.0849,-0.0855,-0.0866,-0.0943,-0.0941,-0.0946,-0.0964,-0.0989,-0.0991,-0.0992,-0.0993,-0.1,-0.0999,0,0,0,0,0,0,-0.0781,-0.0781,-0.0781,-0.0784,-0.0807,-0.0836,-0.084,-0.0828,-0.0878,-0.0888,-0.0864,-0.0868,-0.0936,-0.0944,-0.095,-0.0936,-0.0991,-0.0993,-0.0994,-0.1001,-0.1,-0.0998,0,0,0,0,0,0,-0.0781,-0.0779,-0.0779,-0.0789,-0.0791,-0.0834,-0.082,-0.0828,-0.0834,-0.0889,-0.09,-0.0865,-0.0938,-0.0947,-0.095,-0.0941,-0.0994,-0.0996,-0.1002,-0.1,-0.0999,-0.0898,0,0,0,0,0,0,-0.078,-0.0778,-0.0764,-0.0787,-0.0791,-0.0776,-0.0819,-0.0827,-0.084,-0.0846,-0.0893,-0.0904,-0.0941,-0.0946,-0.0952,-0.0944,-0.0998,-0.1003,-0.1001,-0.1,-0.0903,-0.0893,-0.0885,0,0,0,0,0,-0.0779,-0.0759,-0.0762,-0.0763,-0.077,-0.0775,-0.0778,-0.0815,-0.0838,-0.0829,-0.0854,-0.0903,-0.0939,-0.0945,-0.0953,-0.0946,-0.1004,-0.1002,-0.1,-0.0907,-0.0895,-0.0885,0,0,0,0,0,0,-0.0765,-0.0764,-0.0768,-0.075,-0.0759,-0.0787,-0.0787,-0.0806,-0.0816,-0.0824,-0.0875,-0.0886,-0.0889,-0.0924,-0.0931,-0.0943,-0.0985,-0.0984,-0.0912,-0.0902,-0.0893,-0.0887,-0.0999,0,0,0,0,0,-0.0749,-0.0728,-0.0738,-0.0726,-0.0725,-0.075,-0.0756,-0.0774,-0.0792,-0.08,-0.0828,-0.086,-0.088,-0.0896,-0.0916,-0.0912,-0.0936,-0.0917,-0.0908,-0.0901,-0.09,-0.0917,-0.091,-0.0991,-0.0991,-0.0991,0,0,-0.0747,-0.0741,-0.0733,-0.0721,-0.073,-0.0716,-0.0757,-0.0759,-0.0752,-0.0807,-0.0798,-0.0824,-0.087,-0.0867,-0.0874,-0.0899,-0.0884,-0.0898,-0.089,-0.0895,-0.0914,-0.0906,-0.0899,-0.0989,-0.0989,-0.0989,0,0,-0.0731,-0.0716,-0.0692,-0.0684,-0.0685,-0.0693,-0.069,-0.0701,-0.0709,-0.0695,-0.0739,-0.0749,-0.0776,-0.0804,-0.0825,-0.0777,-0.0832,-0.0795,-0.075,-0.0766,-0.0759,-0.0754,-0.0744,-0.0739,-0.0796,-0.0796,-0.0796,0,-0.0726,-0.0689,-0.069,-0.0661,-0.0656,-0.0678,-0.0655,-0.0656,-0.0668,-0.0666,-0.0684,-0.0711,-0.0746,-0.0756,-0.0742,-0.0758,-0.077,-0.0785,-0.0753,-0.0749,-0.0745,-0.0737,-0.0732,-0.0791,-0.0792,-0.0792,-0.0793,0,-0.069,-0.0657,-0.0642,-0.0606,-0.06,-0.0581,-0.0584,-0.0575,-0.0584,-0.0589,-0.0587,-0.0618,-0.0645,-0.0655,-0.0684,-0.068,-0.0695,-0.0734,-0.0778,-0.0731,-0.0725,-0.0722,-0.0784,-0.0785,-0.0787,-0.0788,0,0,-0.0685,-0.0625,-0.0617,-0.0588,-0.0563,-0.0555,-0.0534,-0.0521,-0.0502,-0.0511,-0.0493,-0.0521,-0.0543,-0.0568,-0.0608,-0.0619,-0.059,-0.0661,-0.0664,-0.0645,-0.0603,-0.0561,-0.0554,-0.0626,-0.0626,-0.0625,-0.0598,0,-0.0653,-0.0577,-0.0567,-0.0513,-0.0475,-0.0483,-0.0458,-0.0451,-0.0446,-0.0426,-0.0462,-0.0456,-0.0511,-0.0516,-0.0536,-0.0576,-0.0583,-0.0592,-0.0658,-0.0659,-0.0623,-0.055,-0.0469,-0.0434,-0.0596,-0.0595,-0.0595,0,-0.0603,-0.0565,-0.0491,-0.0445,-0.0432,-0.0412,-0.0378,-0.0361,-0.0346,-0.0345,-0.0355,-0.0375,-0.0391,-0.0443,-0.049,-0.0494,-0.0542,-0.0573,-0.0574,-0.0572,-0.0612,-0.0515,-0.0424,-0.0555,-0.0591,-0.0592,-0.0592,0,-0.0561,-0.0505,-0.0441,-0.0422,-0.0378,-0.0366,-0.0356,-0.0333,-0.0298,-0.0294,-0.0255,-0.03,-0.0298,-0.0368,-0.0423,-0.0462,-0.0459,-0.0529,-0.0532,-0.053,-0.0493,-0.0487,-0.0534,-0.0563,-0.0563,-0.0563,-0.0564,0,-0.0491,-0.0445,-0.0418,-0.038,-0.0326,-0.0326,-0.0262,-0.0263,-0.0231,-0.0158,-0.0212,-0.0153,-0.028,-0.0287,-0.0376,-0.0414,-0.0425,-0.05,-0.0515,-0.0451,-0.0443,-0.0585,-0.0657,-0.0562,-0.0563,-0.0563,-0.0563,0,-0.0422,-0.0387,-0.0338,-0.0312,-0.0287,-0.0261,-0.0199,-0.0142,-0.0135,-0.0043,-0.0033,-0.0036,-0.0039,-0.0137,-0.0228,-0.0326,-0.0419,-0.0407,-0.0303,-0.0307,-0.0457,-0.0525,-0.0565,-0.0577,-0.0417,-0.0415,-0.0414,0,-0.0372,-0.0319,-0.029,-0.0248,-0.023,-0.0177,-0.0105,-0.0091,-0.0028,0.0058,0.0118,0.0137,0.0204,0.0103,-0.0065,-0.0189,-0.0326,-0.0237,-0.0311,-0.0427,-0.0516,-0.0577,-0.0589,-0.0213,-0.021,-0.0208,-0.0207,0,-0.0292,-0.0282,-0.0256,-0.0175,-0.0107,-0.0015,0.0064,0.0135,0.0185,0.0276,0.0402,0.0465,0.0386,0.0322,0.013,0.0016,-0.0279,-0.0198,-0.0351,-0.0373,-0.0409,-0.0439,-0.0264,-0.0187,-0.0189,-0.0191,-0.0192,-0.0192,-0.0265,-0.0226,-0.0177,-0.0098,-0.0012,0.0135,0.0241,0.0346,0.0487,0.0664,0.0657,0.0833,0.0654,0.0424,0.0229,-0.0102,-0.0144,-0.0221,-0.0293,-0.0346,-0.0356,-0.012,-0.0049,-0.005,-0.0051,-0.0051,-0.0052,0,-0.0218,-0.0142,-0.0076,0.0021,0.0136,0.0181,0.0364,0.0497,0.0702,0.0903,0.1038,0.1111,0.0893,0.0586,0.0126,-0.015,-0.0266,-0.0312,-0.0403,-0.0413,-0.0225,-0.0217,-0.0138,-0.0138,-0.0138,-0.0137,-0.0137,-0.0137,-0.0178,-0.008,-0.0031,0.0156,0.024,0.0445,0.0574,0.0769,0.0948,0.1262,0.1438,0.1514,0.1293,0.041,-0.0193,-0.0341,-0.0528,-0.0545,-0.0673,-0.0591,-0.0591,-0.059,-0.0603,-0.0605,-0.0606,-0.0801,-0.0804,-0.0805]}],[{"header":{"parameterUnit":"m.s-1","parameterCategory":2,"la1":30.2991,"la2":30.254,"lo1":-89.0895,"lo2":-89.0444,"dy":0.0017,"dx":0.0017,"nx":28,"ny":28,"refTime":"2023-08-06T21:00:00:Z","depth":"2","parameterNumber":2,"parameterNumberName":"U-component_of_CURRENTS"},"data":[0,0,0,0,0,0,0,0,0,0,0,0,0,0,0,0,0,0,0,0,0,0,0,0,0,0,0,0,0,0,0,0,0,0,0,0,0,0,0,0,0,0,0,0,0,0,0,0,0,0,0,0,0,0,0,0,0,0,0.1082,0.1081,0,0.1071,0.1072,0.1074,0.1208,0.121,0.1212,0.1214,0.1298,0.1298,0.1298,0,0,0,0,0,0,0,0,0,0,0,0,0,0.1056,0.1059,0.1082,0.1081,0.1079,0.1071,0.1072,0.1074,0.1208,0.121,0.1213,0.1215,0.1297,0.1298,0.1298,0,0,0,0,0,0,0,0,0,0,0,0,0,0.1076,0.106,0.1083,0.1132,0.1135,0.1071,0.1072,0.1074,0.1207,0.121,0.1214,0.1216,0.1297,0.1298,0.1298,0.1238,0,0,0.1299,0.13,0,0,0,0,0,0,0,0,0.1075,0.1079,0.1126,0.1128,0.1131,0.1129,0.1093,0.1128,0.1206,0.1198,0.1214,0.1218,0.1236,0.1242,0.1256,0.1242,0.1245,0.1299,0.13,0.13,0.13,0,0,0,0,0,0,0,0.1073,0.1079,0.1096,0.1124,0.1127,0.1097,0.1107,0.11,0.1215,0.1199,0.1205,0.1175,0.1241,0.1256,0.1259,0.1247,0.1299,0.13,0.13,0.13,0.1425,0.1428,0,0,0,0,0,0,0.1045,0.1078,0.1096,0.1094,0.109,0.1094,0.1106,0.1141,0.1213,0.1221,0.1172,0.118,0.1253,0.1258,0.1262,0.1385,0.13,0.13,0.13,0.1422,0.1426,0.1429,0,0,0,0,0,0,0.1046,0.105,0.1096,0.1067,0.1069,0.1091,0.1129,0.1138,0.1181,0.1188,0.1203,0.1205,0.1256,0.1262,0.1367,0.1382,0.13,0.1301,0.1419,0.1424,0.1428,0.1508,0,0,0,0,0,0,0.1047,0.1052,0.1076,0.1068,0.1069,0.1081,0.1124,0.1135,0.1147,0.116,0.122,0.123,0.1259,0.1368,0.1368,0.1381,0.1301,0.1415,0.1421,0.1426,0.1501,0.1514,0.1526,0,0,0,0,0,0.1047,0.1044,0.108,0.108,0.1103,0.1078,0.108,0.1114,0.1145,0.1167,0.1271,0.123,0.1403,0.1372,0.1371,0.1384,0.1412,0.1419,0.1426,0.1496,0.1512,0.1526,0,0,0,0,0,0,0.1044,0.1055,0.1095,0.1102,0.1104,0.1096,0.1105,0.1114,0.1204,0.1248,0.128,0.1299,0.139,0.1383,0.1347,0.1443,0.1392,0.14,0.1446,0.1461,0.1473,0.1481,0.1301,0,0,0,0,0,0.1051,0.1064,0.107,0.1076,0.1094,0.1107,0.1102,0.1126,0.1178,0.1221,0.1282,0.1351,0.1405,0.1437,0.1485,0.1527,0.1566,0.1535,0.1547,0.1557,0.1568,0.169,0.1714,0.1452,0.1452,0.1452,0,0,0.1048,0.1048,0.1061,0.1075,0.1101,0.1146,0.1122,0.1129,0.1186,0.1211,0.1355,0.1394,0.1432,0.1521,0.1554,0.1523,0.1656,0.1566,0.1574,0.158,0.17,0.1725,0.1748,0.1457,0.1456,0.1455,0,0,0.103,0.1071,0.1091,0.1119,0.1134,0.1153,0.1158,0.1199,0.1253,0.1357,0.1407,0.1487,0.1562,0.1613,0.1636,0.1733,0.1721,0.1718,0.1779,0.1897,0.192,0.194,0.2033,0.2061,0.1719,0.1719,0.172,0,0.1049,0.1089,0.1083,0.1128,0.1158,0.1171,0.1226,0.1271,0.1347,0.1403,0.143,0.1599,0.1614,0.1713,0.1758,0.1757,0.182,0.1714,0.1914,0.1934,0.1953,0.2044,0.2073,0.1724,0.1724,0.1723,0.1723,0,0.1052,0.1126,0.1141,0.1236,0.1251,0.1297,0.1349,0.1416,0.1481,0.1533,0.1665,0.1731,0.1828,0.1823,0.1821,0.194,0.194,0.1918,0.1871,0.1985,0.2073,0.2102,0.1731,0.1729,0.1728,0.1727,0,0,0.1072,0.1139,0.117,0.1248,0.1329,0.1347,0.1447,0.1536,0.1629,0.1724,0.1851,0.1931,0.1959,0.1988,0.1983,0.2062,0.2236,0.2044,0.2049,0.2129,0.2502,0.2365,0.2383,0.2258,0.2264,0.2268,0.2512,0,0.113,0.1226,0.1225,0.1367,0.1463,0.15,0.159,0.1665,0.1754,0.1893,0.1948,0.2078,0.202,0.2079,0.215,0.2212,0.2317,0.2172,0.2387,0.2393,0.2251,0.2414,0.2133,0.2315,0.254,0.2545,0.2549,0,0.1234,0.1258,0.1388,0.1497,0.1537,0.1593,0.1741,0.1819,0.1971,0.2046,0.2162,0.2221,0.2339,0.2289,0.2478,0.2393,0.2465,0.251,0.252,0.2382,0.231,0.2239,0.236,0.2597,0.2594,0.259,0.2587,0,0.1344,0.1435,0.1531,0.158,0.1665,0.1707,0.1754,0.1883,0.197,0.216,0.2254,0.2401,0.2491,0.2611,0.2679,0.2613,0.2898,0.2821,0.2778,0.2769,0.2565,0.2527,0.3009,0.3009,0.3009,0.3008,0.3007,0,0.1488,0.1579,0.1587,0.1654,0.1737,0.1779,0.1914,0.1978,0.2114,0.225,0.2339,0.2476,0.2582,0.273,0.2785,0.2874,0.3002,0.2831,0.2841,0.2583,0.2545,0.2799,0.2771,0.3017,0.3015,0.3013,0.3012,0,0.1593,0.1669,0.1779,0.1812,0.1819,0.1887,0.1959,0.205,0.2175,0.2352,0.2421,0.258,0.2774,0.2873,0.308,0.2993,0.311,0.3123,0.2792,0.2755,0.2873,0.2847,0.3093,0.309,0.3088,0.3086,0.3085,0,0.1665,0.1731,0.1812,0.1884,0.1884,0.1962,0.2007,0.2097,0.2187,0.2423,0.2504,0.2727,0.2838,0.3045,0.2986,0.3064,0.3202,0.2857,0.2651,0.2906,0.2893,0.2869,0.2847,0.2435,0.2429,0.2423,0.2419,0,0.1719,0.1767,0.1768,0.1876,0.1959,0.2012,0.2072,0.2132,0.2276,0.2394,0.2558,0.2657,0.2798,0.2704,0.2762,0.2779,0.2796,0.2742,0.3185,0.2418,0.2296,0.2277,0.2276,0.2371,0.2375,0.2379,0.2382,0.2384,0.1711,0.1715,0.1768,0.1843,0.1943,0.2003,0.2027,0.2084,0.2176,0.2267,0.244,0.2467,0.2424,0.2316,0.2333,0.2359,0.25,0.24,0.2415,0.2436,0.2277,0.2153,0.2173,0.2176,0.2179,0.2182,0.2185,0,0.1722,0.1695,0.1741,0.1853,0.1901,0.1975,0.2027,0.2007,0.2053,0.2108,0.2169,0.1895,0.1828,0.1949,0.1817,0.1771,0.1742,0.1818,0.1747,0.1794,0.1836,0.1644,0.1375,0.1373,0.1372,0.137,0,0,0.1729,0.1751,0.1736,0.1806,0.1847,0.1857,0.1871,0.1824,0.1827,0.171,0.1671,0.1667,0.1759,0.1453,0.1435,0.1422,0.1618,0.1399,0.2033,0.1992,0.2032,0.2143,0.1896,0,0,0,0,0]},{"header":{"parameterUnit":"m.s-1","parameterCategory":2,"la1":30.2991,"la2":30.254,"lo1":-89.0895,"lo2":-89.0444,"dy":0.0017,"dx":0.0017,"nx":28,"ny":28,"refTime":"2023-08-06T21:00:00:Z","depth":"2","parameterNumber":3,"parameterNumberName":"V-component_of_CURRENTS"},"data":[0,0,0,0,0,0,0,0,0,0,0,0,0,0,0,0,0,0,0,0,0,0,0,0,0,0,0,0,0,0,0,0,0,0,0,0,0,0,0,0,0,0,0,0,0,0,0,0,0,0,0,0,0,0,0,0,0,0,0.028,0.0282,0,0.0329,0.0327,0.0326,0.0185,0.0183,0.0181,0.0179,0.0003,0.0001,-0.0002,0,0,0,0,0,0,0,0,0,0,0,0,0,0.0202,0.0201,0.028,0.0283,0.0285,0.0329,0.0327,0.0326,0.0186,0.0183,0.018,0.0178,0.0004,0.0001,-0.0002,0,0,0,0,0,0,0,0,0,0,0,0,0,0.022,0.0201,0.0279,0.0237,0.0236,0.0329,0.0327,0.0325,0.0186,0.0183,0.0179,0.0176,0.0005,0.0001,-0.0002,0.0042,0,0,-0.0014,-0.0016,0,0,0,0,0,0,0,0,0.0219,0.022,0.0241,0.0241,0.0239,0.0267,0.0237,0.0227,0.0187,0.0181,0.0179,0.0175,0.0088,0.0077,0.0065,0.0033,0.0026,-0.0014,-0.0017,-0.0018,-0.002,0,0,0,0,0,0,0,0.0217,0.0218,0.0276,0.0245,0.0244,0.0265,0.0259,0.0234,0.0131,0.0181,0.0177,0.022,0.0082,0.0069,0.0059,0.0023,-0.0014,-0.0018,-0.002,-0.0022,-0.0041,-0.0039,0,0,0,0,0,0,0.0254,0.0216,0.0275,0.028,0.0246,0.027,0.0263,0.0243,0.0136,0.0125,0.0223,0.0213,0.0077,0.0064,0.0053,0.0047,-0.0018,-0.0022,-0.0024,-0.0043,-0.004,-0.0039,0,0,0,0,0,0,0.0251,0.0256,0.0273,0.0271,0.0277,0.0276,0.0254,0.0246,0.0222,0.0174,0.0153,0.0208,0.0074,0.0058,-0.0004,0.0041,-0.0024,-0.0027,-0.0045,-0.0042,-0.004,0.0069,0,0,0,0,0,0,0.0247,0.0252,0.025,0.0272,0.028,0.0331,0.026,0.0251,0.0266,0.0253,0.0156,0.0137,0.007,0.0002,-0.0008,0.0034,-0.003,-0.0047,-0.0044,-0.004,0.0063,0.0075,0.0085,0,0,0,0,0,0.0243,0.0284,0.0247,0.0257,0.0273,0.0335,0.0338,0.0313,0.0269,0.0271,0.018,0.0139,0.0018,-0.0001,-0.0012,0.003,-0.0049,-0.0045,-0.0041,0.0058,0.0073,0.0085,0,0,0,0,0,0,0.0254,0.0277,0.0236,0.0276,0.0299,0.0319,0.0327,0.0327,0.0262,0.0212,0.0144,0.0119,0.0093,0.0049,0.0031,0.0037,-0.0012,-0.0011,0.0067,0.008,0.0091,0.0113,-0.0033,0,0,0,0,0,0.0259,0.0288,0.03,0.0338,0.0319,0.0315,0.0338,0.0321,0.0291,0.0258,0.0188,0.0123,0.0111,0.0078,0.0039,0.0034,-0.001,0.006,0.0072,0.0081,0.0093,0.006,0.0069,-0.0025,-0.0025,-0.0025,0,0,0.03,0.0307,0.0333,0.0346,0.032,0.0335,0.0309,0.033,0.0361,0.0251,0.0204,0.0154,0.0119,0.0104,0.0092,0.0062,0.0085,0.0086,0.0095,0.0101,0.0065,0.0074,0.0082,-0.0023,-0.0023,-0.0023,0,0,0.0381,0.0345,0.0367,0.0364,0.036,0.0367,0.0379,0.0358,0.0338,0.0321,0.0263,0.0232,0.0173,0.0166,0.0164,0.0222,0.015,0.0217,0.0281,0.0249,0.0256,0.0262,0.0214,0.0215,0.0216,0.0216,0.0217,0,0.0389,0.0414,0.0398,0.0386,0.0412,0.0379,0.0404,0.0403,0.0381,0.0387,0.0305,0.0265,0.0218,0.0274,0.0278,0.0251,0.0201,0.0232,0.0263,0.0268,0.0272,0.0221,0.022,0.0222,0.0221,0.0221,0.022,0,0.0485,0.0464,0.0467,0.0434,0.0475,0.0486,0.0492,0.0489,0.0456,0.046,0.0462,0.0384,0.036,0.0367,0.0329,0.0372,0.0317,0.0285,0.0228,0.0288,0.023,0.0227,0.023,0.0228,0.0227,0.0225,0,0,0.0491,0.0527,0.0492,0.0499,0.0486,0.0538,0.0574,0.0625,0.0655,0.0594,0.0635,0.0607,0.0538,0.0533,0.0493,0.047,0.0447,0.0383,0.0378,0.0333,0.0351,0.0376,0.0374,0.0403,0.0404,0.0404,0.0297,0,0.0506,0.0547,0.0575,0.0616,0.0616,0.0626,0.0686,0.0737,0.073,0.0739,0.0706,0.0679,0.0618,0.0569,0.0557,0.0481,0.0445,0.0478,0.0302,0.0297,0.031,0.0375,0.0318,0.0224,0.0293,0.0293,0.0293,0,0.0497,0.0543,0.0595,0.0692,0.0689,0.0741,0.0828,0.0863,0.0891,0.0869,0.0847,0.0791,0.0771,0.0672,0.0583,0.0595,0.0478,0.0409,0.0403,0.0389,0.0319,0.0177,0.0216,0.0287,0.0287,0.0288,0.0288,0,0.0471,0.0528,0.0601,0.0613,0.0719,0.0774,0.0827,0.0884,0.0906,0.0898,0.0886,0.087,0.0803,0.0705,0.0572,0.0544,0.0463,0.04,0.0321,0.0319,0.0223,0.0214,0.0317,0.0317,0.0317,0.0318,0.0318,0,0.0444,0.0486,0.0591,0.0603,0.07,0.0771,0.0829,0.0874,0.0914,0.0955,0.0903,0.0933,0.0795,0.0744,0.0613,0.0488,0.0483,0.0352,0.0309,0.0261,0.0257,0.0271,0.0267,0.0313,0.0314,0.0315,0.0316,0,0.0421,0.0449,0.049,0.0606,0.066,0.0692,0.0797,0.0864,0.0866,0.0913,0.0893,0.0935,0.0878,0.0774,0.0624,0.0524,0.0405,0.0347,0.0305,0.0262,0.0258,0.0261,0.0233,0.0234,0.0234,0.0234,0.0234,0,0.0418,0.0446,0.0481,0.0485,0.0537,0.061,0.07,0.0782,0.086,0.0942,0.1004,0.0971,0.104,0.0873,0.0632,0.0426,0.0427,0.0253,0.021,0.0297,0.0256,0.0259,0.0261,0.0099,0.0098,0.0097,0.0096,0,0.0428,0.0402,0.0476,0.0475,0.0523,0.0623,0.076,0.0829,0.0945,0.1027,0.1195,0.1257,0.1083,0.0895,0.0605,0.0465,0.0294,0.0233,0.0324,0.0162,0.0171,0.0131,0.0137,0.009,0.009,0.0091,0.0091,0.0092,0.0418,0.0443,0.0467,0.0512,0.0551,0.0678,0.0787,0.097,0.112,0.128,0.1328,0.1375,0.1096,0.0714,0.0484,0.0218,0.0239,0.013,0.0131,0.0133,0.0171,0.0184,0.0109,0.011,0.011,0.0111,0.0111,0,0.0408,0.0496,0.053,0.0558,0.0649,0.0669,0.089,0.1028,0.1248,0.1347,0.1456,0.118,0.0957,0.0689,0.0248,0.0033,-0.0012,0.0005,-0.0037,-0.0029,-0.0022,0.0007,-0.0099,-0.01,-0.01,-0.0101,0,0,0.0423,0.0479,0.0538,0.0649,0.0711,0.0874,0.1005,0.1198,0.1302,0.143,0.1401,0.1293,0.0981,0.0597,0.0294,0.0107,0.0103,0.0079,0.0263,0.0255,0.0265,0.0058,0.0114,0,0,0,0,0]}],[{"header":{"parameterUnit":"m.s-1","parameterCategory":2,"la1":30.2991,"la2":30.254,"lo1":-89.0895,"lo2":-89.0444,"dy":0.0017,"dx":0.0017,"nx":28,"ny":28,"refTime":"2023-08-06T21:00:00:Z","depth":"4","parameterNumber":2,"parameterNumberName":"U-component_of_CURRENTS"},"data":[0,0,0,0,0,0,0,0,0,0,0,0,0,0,0,0,0,0,0,0,0,0,0,0,0,0,0,0,0,0,0,0,0,0,0,0,0,0,0,0,0,0,0,0,0,0,0,0,0,0,0,0,0,0,0,0,0,0,-0.0224,-0.0225,0,-0.0323,-0.0324,-0.0325,-0.0362,-0.0362,-0.0362,-0.0361,-0.0418,-0.042,-0.0421,0,0,0,0,0,0,0,0,0,0,0,0,0,-0.0256,-0.0254,-0.0224,-0.0226,-0.0227,-0.0323,-0.0324,-0.0325,-0.0362,-0.0362,-0.0362,-0.0361,-0.0417,-0.0419,-0.0421,0,0,0,0,0,0,0,0,0,0,0,0,0,-0.0286,-0.0253,-0.0224,-0.0257,-0.0261,-0.0323,-0.0324,-0.0326,-0.0362,-0.0362,-0.0362,-0.0361,-0.0417,-0.0419,-0.0422,-0.0446,0,0,-0.043,-0.0431,0,0,0,0,0,0,0,0,-0.0284,-0.0285,-0.0251,-0.0255,-0.026,-0.033,-0.0356,-0.0364,-0.0362,-0.0323,-0.0361,-0.0361,-0.0385,-0.039,-0.041,-0.0448,-0.0451,-0.043,-0.0432,-0.0433,-0.0433,0,0,0,0,0,0,0,-0.0282,-0.0282,-0.0263,-0.0252,-0.0258,-0.0332,-0.0334,-0.0359,-0.0354,-0.0327,-0.033,-0.0342,-0.0387,-0.0407,-0.0411,-0.0452,-0.043,-0.0432,-0.0434,-0.0435,-0.0543,-0.0544,0,0,0,0,0,0,-0.0261,-0.0278,-0.026,-0.0266,-0.0272,-0.0331,-0.0333,-0.0308,-0.0355,-0.0362,-0.0342,-0.0343,-0.0403,-0.0408,-0.0413,-0.0456,-0.0433,-0.0435,-0.0437,-0.0542,-0.0543,-0.0545,0,0,0,0,0,0,-0.026,-0.0256,-0.0256,-0.0278,-0.0283,-0.0329,-0.0301,-0.031,-0.034,-0.0367,-0.0373,-0.0364,-0.0403,-0.041,-0.0454,-0.0458,-0.0436,-0.0439,-0.054,-0.0542,-0.0544,-0.0534,0,0,0,0,0,0,-0.026,-0.0255,-0.0238,-0.0274,-0.0281,-0.03,-0.0302,-0.0312,-0.0347,-0.035,-0.0388,-0.0393,-0.0403,-0.0451,-0.0457,-0.0461,-0.0441,-0.0539,-0.0541,-0.0544,-0.0533,-0.0536,-0.0538,0,0,0,0,0,-0.026,-0.0246,-0.0236,-0.0235,-0.0251,-0.0301,-0.0312,-0.0345,-0.0349,-0.0369,-0.0398,-0.0392,-0.047,-0.0454,-0.0461,-0.0466,-0.0537,-0.054,-0.0543,-0.0532,-0.0535,-0.0538,0,0,0,0,0,0,-0.0266,-0.0249,-0.0239,-0.0222,-0.0258,-0.0307,-0.0327,-0.0352,-0.0393,-0.0394,-0.0414,-0.0422,-0.046,-0.0474,-0.0456,-0.0508,-0.0501,-0.0505,-0.0489,-0.0493,-0.0495,-0.0452,-0.0443,0,0,0,0,0,-0.0252,-0.0222,-0.0244,-0.0232,-0.0243,-0.0285,-0.0311,-0.0338,-0.0376,-0.0394,-0.0422,-0.0451,-0.0478,-0.0494,-0.0522,-0.0554,-0.0553,-0.0563,-0.0565,-0.0567,-0.0539,-0.0568,-0.0569,-0.0555,-0.0554,-0.0554,0,0,-0.0261,-0.024,-0.0231,-0.0231,-0.0254,-0.0285,-0.03,-0.0341,-0.0376,-0.0393,-0.0443,-0.0463,-0.0491,-0.0526,-0.0543,-0.0537,-0.0573,-0.0571,-0.0572,-0.0542,-0.0571,-0.0572,-0.0573,-0.0557,-0.0556,-0.0556,0,0,-0.0262,-0.0232,-0.0213,-0.0238,-0.0266,-0.0296,-0.0308,-0.0361,-0.0387,-0.0435,-0.0456,-0.0487,-0.0527,-0.0553,-0.0568,-0.0606,-0.0587,-0.0608,-0.0581,-0.0611,-0.0611,-0.0612,-0.0612,-0.0613,-0.0607,-0.0607,-0.0607,0,-0.0272,-0.0238,-0.023,-0.0231,-0.0257,-0.0298,-0.0324,-0.0363,-0.0431,-0.045,-0.0447,-0.0512,-0.0539,-0.0579,-0.0577,-0.0609,-0.0601,-0.0564,-0.0611,-0.0611,-0.0611,-0.0612,-0.0613,-0.0607,-0.0607,-0.0607,-0.0607,0,-0.0266,-0.0253,-0.0254,-0.0248,-0.0282,-0.0315,-0.0362,-0.04,-0.0425,-0.0459,-0.0501,-0.0536,-0.0555,-0.0583,-0.0578,-0.0599,-0.0584,-0.0611,-0.0594,-0.0612,-0.0612,-0.0613,-0.0607,-0.0607,-0.0607,-0.0607,0,0,-0.025,-0.0245,-0.0244,-0.0248,-0.0294,-0.0321,-0.037,-0.0423,-0.0444,-0.0493,-0.0516,-0.0555,-0.0543,-0.0557,-0.0573,-0.0594,-0.0593,-0.0577,-0.0579,-0.056,-0.0619,-0.0452,-0.0437,-0.0615,-0.0615,-0.0615,-0.0617,0,-0.025,-0.0238,-0.0247,-0.028,-0.0292,-0.034,-0.0378,-0.0433,-0.0467,-0.0503,-0.0538,-0.0553,-0.0545,-0.0529,-0.0551,-0.059,-0.0592,-0.0587,-0.0618,-0.0618,-0.0454,-0.0432,-0.0615,-0.0618,-0.0618,-0.0618,-0.0618,0,-0.0242,-0.0229,-0.0237,-0.0272,-0.0281,-0.0301,-0.0351,-0.0394,-0.0455,-0.0473,-0.0488,-0.0507,-0.0527,-0.0518,-0.0562,-0.0548,-0.0551,-0.0586,-0.0588,-0.0425,-0.0451,-0.0599,-0.0619,-0.0619,-0.0619,-0.0619,-0.0619,0,-0.0218,-0.0234,-0.0228,-0.0243,-0.0285,-0.0285,-0.0306,-0.0364,-0.0401,-0.0423,-0.0438,-0.0473,-0.0475,-0.0503,-0.0524,-0.0532,-0.0577,-0.062,-0.048,-0.047,-0.0626,-0.0626,-0.0629,-0.0629,-0.0629,-0.0629,-0.0629,0,-0.0213,-0.022,-0.0199,-0.0198,-0.0201,-0.0233,-0.0247,-0.0276,-0.0322,-0.034,-0.0383,-0.0386,-0.0462,-0.0496,-0.0518,-0.0471,-0.0567,-0.0439,-0.0447,-0.0625,-0.0624,-0.0627,-0.0626,-0.0629,-0.0629,-0.0629,-0.0629,0,-0.0204,-0.0195,-0.0197,-0.0193,-0.0184,-0.0179,-0.0203,-0.0234,-0.025,-0.027,-0.0262,-0.0328,-0.0309,-0.0388,-0.0442,-0.0436,-0.0441,-0.0404,-0.0557,-0.0581,-0.0319,-0.0319,-0.0242,-0.0235,-0.023,-0.0226,-0.0222,0,-0.0196,-0.0182,-0.0167,-0.0164,-0.015,-0.0141,-0.0156,-0.0184,-0.0196,-0.0212,-0.0214,-0.0207,-0.0223,-0.0191,-0.0266,-0.0278,-0.0275,-0.0291,-0.0306,-0.0257,-0.0275,-0.0283,-0.0289,-0.0214,-0.0213,-0.0211,-0.021,0,-0.0187,-0.0174,-0.0177,-0.0154,-0.0148,-0.0155,-0.0134,-0.0125,-0.0139,-0.0174,-0.0098,-0.0072,-0.0051,-0.0072,-0.0069,-0.0098,-0.0295,-0.0237,-0.0248,-0.0263,-0.0223,-0.0247,-0.026,-0.0192,-0.0194,-0.0196,-0.0197,0,-0.0184,-0.019,-0.0179,-0.0167,-0.017,-0.0138,-0.013,-0.0085,-0.0083,-0.0049,-0.0011,-0.0002,-0.0013,0.0026,0.0012,0.0032,0.0036,0.0009,-0.0016,-0.0036,0.0035,0.0115,0.0278,0,0,0,0,0,-0.0164,-0.0179,-0.0191,-0.0184,-0.0186,-0.0159,-0.0127,-0.0118,-0.0087,0.0002,0.0018,0.0076,0.0137,0.0114,0.0179,0.0076,-0.0006,0.0149,-0.006,-0.0092,-0.0112,-0.0046,0,0,0,0,0,0,-0.017,-0.0177,-0.0201,-0.0193,-0.0171,-0.0165,-0.0122,-0.0095,-0.0016,0.0028,0.006,0.01,0.0134,0.0112,0.0181,0.0181,0.0062,0.0164,0.0167,-0.008,-0.0099,-0.0115,-0.0055,0,0,0,0,0]},{"header":{"parameterUnit":"m.s-1","parameterCategory":2,"la1":30.2991,"la2":30.254,"lo1":-89.0895,"lo2":-89.0444,"dy":0.0017,"dx":0.0017,"nx":28,"ny":28,"refTime":"2023-08-06T21:00:00:Z","depth":"4","parameterNumber":3,"parameterNumberName":"V-component_of_CURRENTS"},"data":[0,0,0,0,0,0,0,0,0,0,0,0,0,0,0,0,0,0,0,0,0,0,0,0,0,0,0,0,0,0,0,0,0,0,0,0,0,0,0,0,0,0,0,0,0,0,0,0,0,0,0,0,0,0,0,0,0,0,0.017,0.017,0,0.0154,0.0154,0.0154,0.0237,0.0239,0.0242,0.0244,0.0356,0.0357,0.0358,0,0,0,0,0,0,0,0,0,0,0,0,0,0.0245,0.0243,0.017,0.017,0.017,0.0154,0.0154,0.0154,0.0237,0.0239,0.0242,0.0245,0.0356,0.0357,0.0358,0,0,0,0,0,0,0,0,0,0,0,0,0,0.022,0.0242,0.017,0.0208,0.0212,0.0154,0.0154,0.0154,0.0236,0.0239,0.0243,0.0246,0.0355,0.0357,0.0358,0.0296,0,0,0.0362,0.0362,0,0,0,0,0,0,0,0,0.0221,0.0217,0.0203,0.0206,0.0209,0.0201,0.0222,0.0208,0.0235,0.0227,0.0244,0.0248,0.0313,0.0318,0.0306,0.0301,0.0306,0.0362,0.0363,0.0363,0.0363,0,0,0,0,0,0,0,0.0223,0.0218,0.0165,0.0202,0.0206,0.0217,0.0218,0.0219,0.0254,0.0228,0.0234,0.023,0.0316,0.0305,0.031,0.0308,0.0362,0.0363,0.0364,0.0364,0.0323,0.0321,0,0,0,0,0,0,0.022,0.0219,0.0165,0.0164,0.0223,0.0213,0.0214,0.02,0.0251,0.0261,0.0227,0.0234,0.0301,0.0308,0.0314,0.0325,0.0363,0.0364,0.0365,0.0325,0.0322,0.032,0,0,0,0,0,0,0.0221,0.0215,0.0166,0.0192,0.0186,0.0208,0.0192,0.0198,0.0234,0.0249,0.0262,0.0262,0.0304,0.0313,0.0336,0.0328,0.0365,0.0366,0.0327,0.0324,0.0321,0.0295,0,0,0,0,0,0,0.0223,0.0215,0.0212,0.0191,0.0185,0.0146,0.0189,0.0195,0.0222,0.0233,0.0282,0.0293,0.0307,0.0334,0.0337,0.033,0.0367,0.0329,0.0326,0.0322,0.0298,0.0291,0.0286,0,0,0,0,0,0.0226,0.0208,0.0212,0.0206,0.0177,0.0145,0.0143,0.0171,0.0221,0.0221,0.0258,0.0294,0.0314,0.0333,0.0338,0.0331,0.0331,0.0327,0.0323,0.0301,0.0293,0.0286,0,0,0,0,0,0,0.0238,0.0213,0.0218,0.0194,0.0177,0.016,0.0161,0.0186,0.0211,0.0244,0.0276,0.0287,0.0297,0.0309,0.033,0.0303,0.0325,0.0322,0.0307,0.03,0.0294,0.0279,0.0368,0,0,0,0,0,0.0233,0.0217,0.0193,0.0173,0.0168,0.0172,0.017,0.0191,0.0203,0.0221,0.0252,0.0274,0.0268,0.0288,0.0283,0.0278,0.0282,0.027,0.0264,0.0259,0.0247,0.0235,0.0228,0.0307,0.0307,0.0307,0,0,0.0234,0.0215,0.0209,0.0175,0.0169,0.0142,0.0182,0.0185,0.0172,0.0226,0.0239,0.0257,0.0259,0.0246,0.0252,0.027,0.0239,0.0254,0.025,0.024,0.023,0.0223,0.0216,0.0304,0.0304,0.0305,0,0,0.0209,0.0209,0.0185,0.0167,0.0156,0.0147,0.0157,0.0158,0.0175,0.0176,0.0202,0.0212,0.0226,0.0209,0.0205,0.0158,0.0202,0.0171,0.0143,0.0132,0.0126,0.0121,0.0127,0.0122,0.0176,0.0176,0.0176,0,0.0219,0.0175,0.0173,0.014,0.0127,0.0152,0.0126,0.0121,0.0134,0.0135,0.0184,0.0175,0.0193,0.015,0.0139,0.0145,0.0161,0.0178,0.0126,0.0121,0.0116,0.0124,0.0119,0.0174,0.0175,0.0175,0.0175,0,0.0159,0.0141,0.0126,0.0089,0.0071,0.0058,0.0045,0.005,0.0088,0.0086,0.0082,0.0095,0.0097,0.0096,0.0113,0.0076,0.0106,0.0118,0.0153,0.0107,0.0117,0.0113,0.0172,0.0173,0.0173,0.0173,0,0,0.0158,0.0098,0.0102,0.008,0.0054,0.0032,0.0004,-0.0025,-0.0028,-0.0008,-0.0022,-0.0032,0.0009,0.0003,0.0024,0.0018,0.0008,0.0066,0.0067,0.0085,0.0009,-0.003,-0.0038,0.0031,0.0029,0.0028,0.0035,0,0.0124,0.0064,0.0037,-0.0009,-0.0036,-0.0038,-0.0072,-0.0087,-0.0079,-0.0086,-0.0077,-0.0073,-0.0039,-0.0011,-0.0021,-0.0002,-0.0006,0.0006,0.0038,0.0038,0.0019,-0.0047,0.0024,0.0032,0.0031,0.003,0.003,0,0.0087,0.0047,0.0012,-0.0051,-0.0062,-0.0065,-0.0095,-0.0129,-0.015,-0.0139,-0.0137,-0.0122,-0.0134,-0.0083,-0.0086,-0.0067,-0.0033,-0.0018,-0.0017,-0.0051,-0.0011,0.0082,0.0022,0.0023,0.0024,0.0024,0.0025,0,0.0108,0.0033,0.0015,-0.0002,-0.0065,-0.0053,-0.0074,-0.0102,-0.0136,-0.0142,-0.0148,-0.0166,-0.0149,-0.0133,-0.0102,-0.0076,-0.0101,-0.0064,-0.0078,-0.0078,-0.0025,-0.002,-0.0074,-0.0074,-0.0074,-0.0074,-0.0074,0,0.0091,0.0074,0.005,0.0046,0.0038,-0.0015,-0.002,-0.0041,-0.0091,-0.0144,-0.014,-0.0177,-0.0155,-0.017,-0.013,-0.0131,-0.0122,-0.0107,-0.0095,-0.0036,-0.0033,-0.0027,-0.0022,-0.0074,-0.0074,-0.0074,-0.0074,0,0.0132,0.0111,0.0092,0.0059,0.0071,0.0083,0.004,-0.0009,-0.0034,-0.0099,-0.0101,-0.0173,-0.0192,-0.019,-0.0177,-0.0171,-0.0163,-0.016,-0.0105,-0.0086,-0.0117,-0.0113,-0.0175,-0.0177,-0.0178,-0.0179,-0.018,0,0.0141,0.0148,0.0152,0.0178,0.0196,0.0195,0.0168,0.0078,-0.0002,-0.011,-0.0164,-0.0201,-0.0237,-0.023,-0.0247,-0.0213,-0.0199,-0.0196,-0.0161,-0.0154,-0.0135,-0.0129,-0.0123,-0.0183,-0.0183,-0.0183,-0.0184,0,0.0168,0.0208,0.0194,0.0264,0.0279,0.0205,0.016,0.0104,-0.005,-0.0086,-0.0168,-0.0191,-0.0239,-0.0242,-0.023,-0.0208,-0.0206,-0.021,-0.0206,-0.0172,-0.0163,-0.0142,-0.0135,-0.0189,-0.0188,-0.0188,-0.0187,0,0.0229,0.0229,0.0269,0.0314,0.0336,0.0251,0.0184,0.0077,-0.0011,-0.0142,-0.0171,-0.0202,-0.0233,-0.0244,-0.0246,-0.0231,-0.0211,-0.0183,-0.0179,-0.0174,-0.0188,-0.0177,-0.0219,0,0,0,0,0,0.0304,0.0298,0.0309,0.031,0.0325,0.0351,0.0183,0.007,-0.0072,-0.0107,-0.0133,-0.0164,-0.0186,-0.022,-0.02,-0.0296,-0.0238,-0.0281,-0.0208,-0.0217,-0.0211,-0.0234,0,0,0,0,0,0,0.0338,0.0383,0.0308,0.0328,0.0375,0.0314,0.0242,0.0098,0.0055,-0.0035,-0.0032,-0.0087,-0.0101,-0.0102,-0.0138,-0.0158,-0.0109,-0.0303,-0.0303,-0.022,-0.0215,-0.021,-0.0232,0,0,0,0,0]}]]